Location: Équennes
(49.7375°N, 1.9622°E)
Time: 10:45:11
(UTC+00:00)

ATLAS 5 CENTAUR R/B - Visible Passes

Search period start: 28 September 2023 00:00
Search period end: 08 October 2023 00:00
Orbit: 469 x 1153 km, 63.3° (Epoch: 27 September)

Date Brightness Start Highest point End Pass type
(mag) Time Alt. Az. Time Alt. Az. Time Alt. Az.
28 Sep 4.3 01:48:54 14° NE 01:48:54 14° NE 01:49:34 10° NE visible
28 Sep 3.3 03:30:03 17° NNW 03:30:38 18° NNW 03:33:35 10° NNE visible
29 Sep 3.4 03:06:03 19° NNW 03:06:03 19° NNW 03:08:51 10° NNE visible
29 Sep 3.9 04:49:14 10° NNW 04:51:38 14° N 04:54:15 10° NE visible
30 Sep 3.7 02:42:03 18° N 02:42:03 18° N 02:44:08 10° NNE visible
30 Sep 3.9 04:24:26 10° NNW 04:26:45 14° N 04:29:17 10° NE visible
01 Oct 4.0 02:18:01 16° NNE 02:18:01 16° NNE 02:19:25 10° NNE visible
01 Oct 3.9 03:59:35 10° NNW 04:01:52 14° N 04:04:19 10° NE visible
02 Oct 4.4 01:54:00 13° NNE 01:54:00 13° NNE 01:54:40 10° NNE visible
02 Oct 3.9 03:35:08 11° NNW 03:36:58 14° N 03:39:23 10° NNE visible
02 Oct 3.9 05:19:13 10° NNW 05:22:45 22° NNE 05:26:47 10° ENE visible
03 Oct 3.9 03:11:06 13° NNW 03:12:03 14° N 03:14:28 10° NNE visible
03 Oct 3.9 04:54:30 10° NNW 04:57:52 20° NNE 05:01:42 10° ENE visible
04 Oct 4.0 02:47:04 14° N 02:47:08 14° N 02:49:35 10° NNE visible
04 Oct 4.0 04:29:46 10° NNW 04:32:59 19° NNE 04:36:37 10° ENE visible
05 Oct 4.2 02:23:02 14° N 02:23:02 14° N 02:24:42 10° NNE visible
05 Oct 4.0 04:05:01 10° NNW 04:08:05 18° NNE 04:11:31 10° ENE visible
06 Oct 4.5 01:58:59 12° NNE 01:58:59 12° NNE 01:59:50 10° NNE visible
06 Oct 4.1 03:40:15 10° NNW 03:43:10 17° NNE 03:46:24 10° ENE visible
06 Oct 3.1 05:23:58 10° NW 05:28:26 42° NE 05:33:48 10° ESE visible
07 Oct 4.8 01:34:58 10° NNE 01:34:58 10° NNE 01:34:59 10° NNE visible
07 Oct 4.0 03:16:07 12° NNW 03:18:14 16° NNE 03:21:17 10° NE visible
07 Oct 3.2 04:59:13 10° NNW 05:03:35 38° NE 05:08:47 10° ESE visible
